Location: Observatoire
(46.1952°N, 5.3391°E)
Time: 01:35:55
(UTC+02:00)

DUCHIFAT 1 - Pass Details

Date: 02 May 2024
Orbit: 538 x 556 km, 98.1° (Epoch: 19 May)

Event Time Altitude Azimuth Distance (km) Brightness Sun altitude
Rises 05:42:24 0° 22° (NNE) 2,750 ? -7.1°
Reaches altitude 10° 05:44:45 10° 33° (NNE) 1,847 ? -6.7°
Maximum altitude 05:48:19 31° 97° (E) 986 ? -6.2°
Drops below altitude 10° 05:51:50 10° 160° (SSE) 1,821 ? -5.7°
Sets 05:54:08 0° 171° (S) 2,705 ? -5.3°
